Regional Weather Roundup
Issued by NWS Kansas City/Pleasant Hill, MO

Home | Current Version | Previous Version | Text Only | Print | Product List | Glossary On
Versions: 1 2 3 4 5 6 7 8 9 10 11 12 13 14 15 16 17 18 19 20 21 22 23 24 25 26 27 28 29 30 31 32 33 34 35 36 37 38 39 40 41 42 43 44 45 46 47 48 49 50
446
ASUS43 KEAX 200310
RWREAX

WEATHER ROUNDUP FOR EASTERN KANSAS AND NORTHWEST MISSOURI
NATIONAL WEATHER SERVICE KANSAS CITY/PLEASANT HILL MO
1000 PM CDT WED JUL 19 2017

KSZ040-057-103>105-MOZ028-029-037-043-200400-
...KANSAS CITY METROPOLITAN AREA...

CITY           SKY/WX    TMP DP  RH WIND       PRES   REMARKS
K.C. INTL      MOCLDY    81  73  76 S9        30.02R
K.C. DOWNTOWN  PTCLDY    87  73  62 S9        30.01R HX  94
LEES SUMMIT    CLEAR     85  73  67 S9        30.04R HX  91
OLATHE - IXD   PTCLDY    83  72  69 S8        30.04R
OLATHE - OJC   CLOUDY    80  73  79 S9        30.04R
LAWRENCE       PTCLDY    81  75  82 SE7       30.01R

$$

MOZ001>008-011>017-020>025-030>033-038>040-044>046-053-054-200400-
...NORTHERN AND CENTRAL MISSOURI...

CITY           SKY/WX    TMP DP  RH WIND       PRES   REMARKS
ST. JOSEPH     CLEAR     81  76  84 S8        29.99R
MOSBY            N/A     82  72  69 S3        30.02R
WARRENSBURG    CLEAR     79  72  78 S3        30.03R
WHITEMAN AFB   CLEAR     81  81 100 S5        30.04R HX  93
CLINTON        CLEAR     81  73  78 S3        30.05R HAZE
SEDALIA        CLEAR     83  78  85 S5        30.06R HX  93
WARSAW         NOT AVBL
CHILLICOTHE      N/A     84  79  85 S5        30.02R HX  96
KIRKSVILLE     PTCLDY    78  75  90 S6        30.05R

$$

MOZ041-047>049-056>058-063>065-088>090-097-200400-
...EASTERN AND SOUTHERN MISSOURI...

CITY           SKY/WX    TMP DP  RH WIND       PRES   REMARKS
ST. LOUIS INTL PTCLDY    91  73  55 CALM      30.05R HX  99
SPIRIT OF STL  PTCLDY    81  75  82 CALM      30.03R
COLUMBIA       CLEAR     83  73  72 SE3       30.06R
JEFFERSON CITY CLEAR     82  78  88 CALM      30.03R HX  91
ROLLA          CLEAR     80  69  69 SE7       30.07R
OSAGE BEACH    CLEAR     83  73  72 S6        30.07R
SPRINGFIELD    CLEAR     81  69  67 S6        30.08S
BRANSON        PTCLDY    82  68  61 S6        30.12R
JOPLIN         CLEAR     82  74  76 S6        30.07R
WEST PLAINS    CLEAR     79  71  76 CALM      30.12R

$$

IAZ060-094-KSZ022-034>040-054-083-096-NEZ052-066-093-200400-
...KANSAS...SOUTHEAST NEBRASKA AND IOWA...

CITY           SKY/WX    TMP DP  RH WIND       PRES   REMARKS
TOPEKA         CLEAR     83  75  77 SE7       30.00R HX  90
MANHATTAN      CLEAR     88  68  51 S5        29.97R HX  91
EMPORIA        CLEAR     84  70  62 S13       30.01R
CHANUTE        CLEAR     83  72  69 S8        30.03R
WICHITA        CLEAR     85  67  54 S12       29.99R
OMAHA          CLOUDY    88  77  69 S16       29.90S HX 100
LINCOLN        CLOUDY    86  71  60 S12       29.91F HX  91
FALLS CITY     CLEAR     83  73  72 S9        29.96R
LAMONI         MOCLDY    81  78  91 SE7       30.01R
DES MOINES     CLOUDY    83  74  74 S9        29.97R

$$





USA.gov is the U.S. government's official web portal to all federal, state and local government web resources and services.